ZIYUAN 3-2 (ZY 3-2) (41556 NORAD) Tracking and Keplerian Element Data

This shows tracking and keplerian element data for the satellite.

Feedback or suggestion? Click here.




ElementValue
Catalog41556
NameZIYUAN 3-2 (ZY 3-2)
Epoch Orbit44563
Epoch Day160.21098537
Epoch Year2024
RAAN235.6657
Inclination97.4562
Eccentricity0.000111
Argument of Perigee186.9493
Mean Anonmoly173.1728
Mean Motion15.21149152
Decay Rate0.00013403
L11 41556U 16033A 24160.21098537 .00013403 00000+0 60432-3 0 9990
L22 41556 97.4562 235.6657 0001110 186.9493 173.1728 15.21149152445635



Live tracking and technical data element details for ZIYUAN 3-2 (ZY 3-2) (NORAD 41556). ZIYUAN 3-2 (ZY 3-2) can be tracked NOW for your location showing map with azimuth and elevation plus other details from your city location.







IsCatalogInMostPopularTable: catalog: 41556, numindb: 663
Update: records affected: 1



GetName: 41556 ZIYUAN 3-2 (ZY 3-2)

Hit Count: updated at: Tue, 18 Jun 2024 00:15:08 GMT